Index of /20260430/WXO-DD/model_rdps/10km/18/078
Name Last modified Size Description
Parent Directory -
20260430T18Z_MSC_RDPS_AbsoluteVorticity_IsbL-0250_RLatLon0.09_PT078H.grib2 2026-04-30 21:02 616K
20260430T18Z_MSC_RDPS_AbsoluteVorticity_IsbL-0500_RLatLon0.09_PT078H.grib2 2026-04-30 21:02 566K
20260430T18Z_MSC_RDPS_AbsoluteVorticity_IsbL-0700_RLatLon0.09_PT078H.grib2 2026-04-30 21:02 618K
20260430T18Z_MSC_RDPS_AbsoluteVorticity_IsbL-0850_RLatLon0.09_PT078H.grib2 2026-04-30 21:02 778K
20260430T18Z_MSC_RDPS_AirTemp_AGL-120m_RLatLon0.09_PT078H.grib2 2026-04-30 21:02 386K
20260430T18Z_MSC_RDPS_AirTemp_AGL-2m_RLatLon0.09_PT078H.grib2 2026-04-30 21:02 623K
20260430T18Z_MSC_RDPS_AirTemp_AGL-40m_RLatLon0.09_PT078H.grib2 2026-04-30 21:02 397K
20260430T18Z_MSC_RDPS_AirTemp_AGL-80m_RLatLon0.09_PT078H.grib2 2026-04-30 21:02 391K
20260430T18Z_MSC_RDPS_AirTemp_IsbL-0001_RLatLon0.09_PT078H.grib2 2026-04-30 21:02 306K
20260430T18Z_MSC_RDPS_AirTemp_IsbL-0005_RLatLon0.09_PT078H.grib2 2026-04-30 21:02 289K
20260430T18Z_MSC_RDPS_AirTemp_IsbL-0010_RLatLon0.09_PT078H.grib2 2026-04-30 21:02 297K
20260430T18Z_MSC_RDPS_AirTemp_IsbL-0020_RLatLon0.09_PT078H.grib2 2026-04-30 21:02 409K
20260430T18Z_MSC_RDPS_AirTemp_IsbL-0030_RLatLon0.09_PT078H.grib2 2026-04-30 21:02 341K
20260430T18Z_MSC_RDPS_AirTemp_IsbL-0050_RLatLon0.09_PT078H.grib2 2026-04-30 21:02 316K
20260430T18Z_MSC_RDPS_AirTemp_IsbL-0100_RLatLon0.09_PT078H.grib2 2026-04-30 21:02 427K
20260430T18Z_MSC_RDPS_AirTemp_IsbL-0150_RLatLon0.09_PT078H.grib2 2026-04-30 21:02 419K
20260430T18Z_MSC_RDPS_AirTemp_IsbL-0175_RLatLon0.09_PT078H.grib2 2026-04-30 21:02 407K
20260430T18Z_MSC_RDPS_AirTemp_IsbL-0200_RLatLon0.09_PT078H.grib2 2026-04-30 21:02 416K
20260430T18Z_MSC_RDPS_AirTemp_IsbL-0225_RLatLon0.09_PT078H.grib2 2026-04-30 21:02 421K
20260430T18Z_MSC_RDPS_AirTemp_IsbL-0250_RLatLon0.09_PT078H.grib2 2026-04-30 21:02 425K
20260430T18Z_MSC_RDPS_AirTemp_IsbL-0275_RLatLon0.09_PT078H.grib2 2026-04-30 21:02 403K
20260430T18Z_MSC_RDPS_AirTemp_IsbL-0300_RLatLon0.09_PT078H.grib2 2026-04-30 21:02 408K
20260430T18Z_MSC_RDPS_AirTemp_IsbL-0350_RLatLon0.09_PT078H.grib2 2026-04-30 21:02 422K
20260430T18Z_MSC_RDPS_AirTemp_IsbL-0400_RLatLon0.09_PT078H.grib2 2026-04-30 21:02 426K
20260430T18Z_MSC_RDPS_AirTemp_IsbL-0450_RLatLon0.09_PT078H.grib2 2026-04-30 21:02 435K
20260430T18Z_MSC_RDPS_AirTemp_IsbL-0500_RLatLon0.09_PT078H.grib2 2026-04-30 21:02 446K
20260430T18Z_MSC_RDPS_AirTemp_IsbL-0550_RLatLon0.09_PT078H.grib2 2026-04-30 21:02 463K
20260430T18Z_MSC_RDPS_AirTemp_IsbL-0600_RLatLon0.09_PT078H.grib2 2026-04-30 21:02 443K
20260430T18Z_MSC_RDPS_AirTemp_IsbL-0650_RLatLon0.09_PT078H.grib2 2026-04-30 21:02 458K
20260430T18Z_MSC_RDPS_AirTemp_IsbL-0700_RLatLon0.09_PT078H.grib2 2026-04-30 21:02 376K
20260430T18Z_MSC_RDPS_AirTemp_IsbL-0750_RLatLon0.09_PT078H.grib2 2026-04-30 21:02 405K
20260430T18Z_MSC_RDPS_AirTemp_IsbL-0800_RLatLon0.09_PT078H.grib2 2026-04-30 21:02 446K
20260430T18Z_MSC_RDPS_AirTemp_IsbL-0850_RLatLon0.09_PT078H.grib2 2026-04-30 21:02 496K
20260430T18Z_MSC_RDPS_AirTemp_IsbL-0875_RLatLon0.09_PT078H.grib2 2026-04-30 21:02 516K
20260430T18Z_MSC_RDPS_AirTemp_IsbL-0900_RLatLon0.09_PT078H.grib2 2026-04-30 21:02 524K
20260430T18Z_MSC_RDPS_AirTemp_IsbL-0925_RLatLon0.09_PT078H.grib2 2026-04-30 21:02 517K
20260430T18Z_MSC_RDPS_AirTemp_IsbL-0950_RLatLon0.09_PT078H.grib2 2026-04-30 21:02 516K
20260430T18Z_MSC_RDPS_AirTemp_IsbL-0970_RLatLon0.09_PT078H.grib2 2026-04-30 21:02 511K
20260430T18Z_MSC_RDPS_AirTemp_IsbL-0985_RLatLon0.09_PT078H.grib2 2026-04-30 21:02 504K
20260430T18Z_MSC_RDPS_AirTemp_IsbL-1000_RLatLon0.09_PT078H.grib2 2026-04-30 21:02 489K
20260430T18Z_MSC_RDPS_AirTemp_IsbL-1015_RLatLon0.09_PT078H.grib2 2026-04-30 21:02 488K
20260430T18Z_MSC_RDPS_Albedo_Sfc_RLatLon0.09_PT078H.grib2 2026-04-30 21:02 155K
20260430T18Z_MSC_RDPS_CAPE_Sfc_RLatLon0.09_PT078H.grib2 2026-04-30 21:02 1.7M
20260430T18Z_MSC_RDPS_CIN_Sfc_RLatLon0.09_PT078H.grib2 2026-04-30 21:02 1.2M
20260430T18Z_MSC_RDPS_CloudWater_EAtm_RLatLon0.09_PT078H.grib2 2026-04-30 21:02 223K
20260430T18Z_MSC_RDPS_ConvectivePrecip-Accum_Sfc_RLatLon0.09_PT078H.grib2 2026-04-30 21:02 1.2M
20260430T18Z_MSC_RDPS_DewPointDepression_AGL-2m_RLatLon0.09_PT078H.grib2 2026-04-30 21:02 418K
20260430T18Z_MSC_RDPS_DewPointDepression_IsbL-0001_RLatLon0.09_PT078H.grib2 2026-04-30 21:02 193
20260430T18Z_MSC_RDPS_DewPointDepression_IsbL-0005_RLatLon0.09_PT078H.grib2 2026-04-30 21:02 193
20260430T18Z_MSC_RDPS_DewPointDepression_IsbL-0010_RLatLon0.09_PT078H.grib2 2026-04-30 21:02 193
20260430T18Z_MSC_RDPS_DewPointDepression_IsbL-0020_RLatLon0.09_PT078H.grib2 2026-04-30 21:02 193
20260430T18Z_MSC_RDPS_DewPointDepression_IsbL-0030_RLatLon0.09_PT078H.grib2 2026-04-30 21:02 193
20260430T18Z_MSC_RDPS_DewPointDepression_IsbL-0050_RLatLon0.09_PT078H.grib2 2026-04-30 21:02 75K
20260430T18Z_MSC_RDPS_DewPointDepression_IsbL-0100_RLatLon0.09_PT078H.grib2 2026-04-30 21:02 119K
20260430T18Z_MSC_RDPS_DewPointDepression_IsbL-0150_RLatLon0.09_PT078H.grib2 2026-04-30 21:02 142K
20260430T18Z_MSC_RDPS_DewPointDepression_IsbL-0175_RLatLon0.09_PT078H.grib2 2026-04-30 21:02 177K
20260430T18Z_MSC_RDPS_DewPointDepression_IsbL-0200_RLatLon0.09_PT078H.grib2 2026-04-30 21:02 218K
20260430T18Z_MSC_RDPS_DewPointDepression_IsbL-0225_RLatLon0.09_PT078H.grib2 2026-04-30 21:02 260K
20260430T18Z_MSC_RDPS_DewPointDepression_IsbL-0250_RLatLon0.09_PT078H.grib2 2026-04-30 21:02 299K
20260430T18Z_MSC_RDPS_DewPointDepression_IsbL-0275_RLatLon0.09_PT078H.grib2 2026-04-30 21:02 308K
20260430T18Z_MSC_RDPS_DewPointDepression_IsbL-0300_RLatLon0.09_PT078H.grib2 2026-04-30 21:02 328K
20260430T18Z_MSC_RDPS_DewPointDepression_IsbL-0350_RLatLon0.09_PT078H.grib2 2026-04-30 21:02 335K
20260430T18Z_MSC_RDPS_DewPointDepression_IsbL-0400_RLatLon0.09_PT078H.grib2 2026-04-30 21:02 343K
20260430T18Z_MSC_RDPS_DewPointDepression_IsbL-0450_RLatLon0.09_PT078H.grib2 2026-04-30 21:02 347K
20260430T18Z_MSC_RDPS_DewPointDepression_IsbL-0500_RLatLon0.09_PT078H.grib2 2026-04-30 21:02 353K
20260430T18Z_MSC_RDPS_DewPointDepression_IsbL-0550_RLatLon0.09_PT078H.grib2 2026-04-30 21:02 364K
20260430T18Z_MSC_RDPS_DewPointDepression_IsbL-0600_RLatLon0.09_PT078H.grib2 2026-04-30 21:02 371K
20260430T18Z_MSC_RDPS_DewPointDepression_IsbL-0650_RLatLon0.09_PT078H.grib2 2026-04-30 21:02 379K
20260430T18Z_MSC_RDPS_DewPointDepression_IsbL-0700_RLatLon0.09_PT078H.grib2 2026-04-30 21:02 390K
20260430T18Z_MSC_RDPS_DewPointDepression_IsbL-0750_RLatLon0.09_PT078H.grib2 2026-04-30 21:02 407K
20260430T18Z_MSC_RDPS_DewPointDepression_IsbL-0800_RLatLon0.09_PT078H.grib2 2026-04-30 21:02 442K
20260430T18Z_MSC_RDPS_DewPointDepression_IsbL-0850_RLatLon0.09_PT078H.grib2 2026-04-30 21:02 477K
20260430T18Z_MSC_RDPS_DewPointDepression_IsbL-0875_RLatLon0.09_PT078H.grib2 2026-04-30 21:02 479K
20260430T18Z_MSC_RDPS_DewPointDepression_IsbL-0900_RLatLon0.09_PT078H.grib2 2026-04-30 21:02 466K
20260430T18Z_MSC_RDPS_DewPointDepression_IsbL-0925_RLatLon0.09_PT078H.grib2 2026-04-30 21:02 452K
20260430T18Z_MSC_RDPS_DewPointDepression_IsbL-0950_RLatLon0.09_PT078H.grib2 2026-04-30 21:02 444K
20260430T18Z_MSC_RDPS_DewPointDepression_IsbL-0970_RLatLon0.09_PT078H.grib2 2026-04-30 21:02 436K
20260430T18Z_MSC_RDPS_DewPointDepression_IsbL-0985_RLatLon0.09_PT078H.grib2 2026-04-30 21:02 433K
20260430T18Z_MSC_RDPS_DewPointDepression_IsbL-1000_RLatLon0.09_PT078H.grib2 2026-04-30 21:02 429K
20260430T18Z_MSC_RDPS_DewPointDepression_IsbL-1015_RLatLon0.09_PT078H.grib2 2026-04-30 21:02 420K
20260430T18Z_MSC_RDPS_DewPoint_AGL-2m_RLatLon0.09_PT078H.grib2 2026-04-30 21:02 311K
20260430T18Z_MSC_RDPS_DownwardLongwaveRadiationFlux-Accum_Sfc_RLatLon0.09_PT078H.grib2 2026-04-30 21:02 435K
20260430T18Z_MSC_RDPS_DownwardShortwaveRadiationFlux-Accum_NTAtm_RLatLon0.09_PT078H.grib2 2026-04-30 21:02 109K
20260430T18Z_MSC_RDPS_DownwardShortwaveRadiationFlux-Accum_Sfc_RLatLon0.09_PT078H.grib2 2026-04-30 21:02 641K
20260430T18Z_MSC_RDPS_FreezingRain-Accum12h_Sfc_RLatLon0.09_PT078H.grib2 2026-04-30 21:02 58K
20260430T18Z_MSC_RDPS_FreezingRain-Accum1h_Sfc_RLatLon0.09_PT078H.grib2 2026-04-30 21:02 21K
20260430T18Z_MSC_RDPS_FreezingRain-Accum24h_Sfc_RLatLon0.09_PT078H.grib2 2026-04-30 21:02 104K
20260430T18Z_MSC_RDPS_FreezingRain-Accum3h_Sfc_RLatLon0.09_PT078H.grib2 2026-04-30 21:02 22K
20260430T18Z_MSC_RDPS_FreezingRain-Accum6h_Sfc_RLatLon0.09_PT078H.grib2 2026-04-30 21:02 26K
20260430T18Z_MSC_RDPS_FreezingRain-Accum_Sfc_RLatLon0.09_PT078H.grib2 2026-04-30 21:02 220K
20260430T18Z_MSC_RDPS_GeopotentialHeight_IsbL-0001_RLatLon0.09_PT078H.grib2 2026-04-30 21:02 312K
20260430T18Z_MSC_RDPS_GeopotentialHeight_IsbL-0005_RLatLon0.09_PT078H.grib2 2026-04-30 21:02 335K
20260430T18Z_MSC_RDPS_GeopotentialHeight_IsbL-0010_RLatLon0.09_PT078H.grib2 2026-04-30 21:02 302K
20260430T18Z_MSC_RDPS_GeopotentialHeight_IsbL-0020_RLatLon0.09_PT078H.grib2 2026-04-30 21:02 396K
20260430T18Z_MSC_RDPS_GeopotentialHeight_IsbL-0030_RLatLon0.09_PT078H.grib2 2026-04-30 21:02 305K
20260430T18Z_MSC_RDPS_GeopotentialHeight_IsbL-0050_RLatLon0.09_PT078H.grib2 2026-04-30 21:02 341K
20260430T18Z_MSC_RDPS_GeopotentialHeight_IsbL-0100_RLatLon0.09_PT078H.grib2 2026-04-30 21:02 288K
20260430T18Z_MSC_RDPS_GeopotentialHeight_IsbL-0150_RLatLon0.09_PT078H.grib2 2026-04-30 21:02 231K
20260430T18Z_MSC_RDPS_GeopotentialHeight_IsbL-0175_RLatLon0.09_PT078H.grib2 2026-04-30 21:02 233K
20260430T18Z_MSC_RDPS_GeopotentialHeight_IsbL-0200_RLatLon0.09_PT078H.grib2 2026-04-30 21:02 265K
20260430T18Z_MSC_RDPS_GeopotentialHeight_IsbL-0225_RLatLon0.09_PT078H.grib2 2026-04-30 21:02 266K
20260430T18Z_MSC_RDPS_GeopotentialHeight_IsbL-0250_RLatLon0.09_PT078H.grib2 2026-04-30 21:02 267K
20260430T18Z_MSC_RDPS_GeopotentialHeight_IsbL-0275_RLatLon0.09_PT078H.grib2 2026-04-30 21:02 266K
20260430T18Z_MSC_RDPS_GeopotentialHeight_IsbL-0300_RLatLon0.09_PT078H.grib2 2026-04-30 21:02 235K
20260430T18Z_MSC_RDPS_GeopotentialHeight_IsbL-0350_RLatLon0.09_PT078H.grib2 2026-04-30 21:02 231K
20260430T18Z_MSC_RDPS_GeopotentialHeight_IsbL-0400_RLatLon0.09_PT078H.grib2 2026-04-30 21:02 227K
20260430T18Z_MSC_RDPS_GeopotentialHeight_IsbL-0450_RLatLon0.09_PT078H.grib2 2026-04-30 21:02 297K
20260430T18Z_MSC_RDPS_GeopotentialHeight_IsbL-0500_RLatLon0.09_PT078H.grib2 2026-04-30 21:02 292K
20260430T18Z_MSC_RDPS_GeopotentialHeight_IsbL-0550_RLatLon0.09_PT078H.grib2 2026-04-30 21:02 288K
20260430T18Z_MSC_RDPS_GeopotentialHeight_IsbL-0600_RLatLon0.09_PT078H.grib2 2026-04-30 21:02 284K
20260430T18Z_MSC_RDPS_GeopotentialHeight_IsbL-0650_RLatLon0.09_PT078H.grib2 2026-04-30 21:02 255K
20260430T18Z_MSC_RDPS_GeopotentialHeight_IsbL-0700_RLatLon0.09_PT078H.grib2 2026-04-30 21:02 255K
20260430T18Z_MSC_RDPS_GeopotentialHeight_IsbL-0750_RLatLon0.09_PT078H.grib2 2026-04-30 21:02 257K
20260430T18Z_MSC_RDPS_GeopotentialHeight_IsbL-0800_RLatLon0.09_PT078H.grib2 2026-04-30 21:02 345K
20260430T18Z_MSC_RDPS_GeopotentialHeight_IsbL-0850_RLatLon0.09_PT078H.grib2 2026-04-30 21:02 354K
20260430T18Z_MSC_RDPS_GeopotentialHeight_IsbL-0875_RLatLon0.09_PT078H.grib2 2026-04-30 21:02 357K
20260430T18Z_MSC_RDPS_GeopotentialHeight_IsbL-0900_RLatLon0.09_PT078H.grib2 2026-04-30 21:02 360K
20260430T18Z_MSC_RDPS_GeopotentialHeight_IsbL-0925_RLatLon0.09_PT078H.grib2 2026-04-30 21:02 361K
20260430T18Z_MSC_RDPS_GeopotentialHeight_IsbL-0950_RLatLon0.09_PT078H.grib2 2026-04-30 21:02 365K
20260430T18Z_MSC_RDPS_GeopotentialHeight_IsbL-0970_RLatLon0.09_PT078H.grib2 2026-04-30 21:02 369K
20260430T18Z_MSC_RDPS_GeopotentialHeight_IsbL-0985_RLatLon0.09_PT078H.grib2 2026-04-30 21:02 377K
20260430T18Z_MSC_RDPS_GeopotentialHeight_IsbL-1000_RLatLon0.09_PT078H.grib2 2026-04-30 21:02 388K
20260430T18Z_MSC_RDPS_GeopotentialHeight_IsbL-1015_RLatLon0.09_PT078H.grib2 2026-04-30 21:02 309K
20260430T18Z_MSC_RDPS_Humidex_Sfc_RLatLon0.09_PT078H.grib2 2026-04-30 21:02 2.4M
20260430T18Z_MSC_RDPS_IcePellets-Accum12h_Sfc_RLatLon0.09_PT078H.grib2 2026-04-30 21:02 5.5K
20260430T18Z_MSC_RDPS_IcePellets-Accum1h_Sfc_RLatLon0.09_PT078H.grib2 2026-04-30 21:02 1.7K
20260430T18Z_MSC_RDPS_IcePellets-Accum24h_Sfc_RLatLon0.09_PT078H.grib2 2026-04-30 21:02 9.7K
20260430T18Z_MSC_RDPS_IcePellets-Accum3h_Sfc_RLatLon0.09_PT078H.grib2 2026-04-30 21:02 1.9K
20260430T18Z_MSC_RDPS_IcePellets-Accum6h_Sfc_RLatLon0.09_PT078H.grib2 2026-04-30 21:02 2.6K
20260430T18Z_MSC_RDPS_IcePellets-Accum_Sfc_RLatLon0.09_PT078H.grib2 2026-04-30 21:02 34K
20260430T18Z_MSC_RDPS_KIndex_Sfc_RLatLon0.09_PT078H.grib2 2026-04-30 21:02 2.5M
20260430T18Z_MSC_RDPS_LatentHeatNetFlux_Sfc_RLatLon0.09_PT078H.grib2 2026-04-30 21:02 359K
20260430T18Z_MSC_RDPS_LiftedIndex-MU-VT_IsbL-0500_RLatLon0.09_PT078H.grib2 2026-04-30 21:02 2.4M
20260430T18Z_MSC_RDPS_NetLongwaveRadiationFlux-Accum_Sfc_RLatLon0.09_PT078H.grib2 2026-04-30 21:02 486K
20260430T18Z_MSC_RDPS_NetShortwaveRadiationFlux-Accum_Sfc_RLatLon0.09_PT078H.grib2 2026-04-30 21:02 644K
20260430T18Z_MSC_RDPS_PlanetaryBoundaryLayerHeight_Sfc_RLatLon0.09_PT078H.grib2 2026-04-30 21:02 1.0M
20260430T18Z_MSC_RDPS_Precip-Accum12h_Sfc_RLatLon0.09_PT078H.grib2 2026-04-30 21:02 1.8M
20260430T18Z_MSC_RDPS_Precip-Accum1h_Sfc_RLatLon0.09_PT078H.grib2 2026-04-30 21:02 1.2M
20260430T18Z_MSC_RDPS_Precip-Accum24h_Sfc_RLatLon0.09_PT078H.grib2 2026-04-30 21:02 1.8M
20260430T18Z_MSC_RDPS_Precip-Accum3h_Sfc_RLatLon0.09_PT078H.grib2 2026-04-30 21:02 1.3M
20260430T18Z_MSC_RDPS_Precip-Accum6h_Sfc_RLatLon0.09_PT078H.grib2 2026-04-30 21:02 1.5M
20260430T18Z_MSC_RDPS_Precip-Accum_Sfc_RLatLon0.09_PT078H.grib2 2026-04-30 21:02 2.2M
20260430T18Z_MSC_RDPS_PrecipRate_Sfc_RLatLon0.09_PT078H.grib2 2026-04-30 21:02 165K
20260430T18Z_MSC_RDPS_PrecipType-Instant_Sfc_RLatLon0.09_PT078H.grib2 2026-04-30 21:02 597K
20260430T18Z_MSC_RDPS_Pressure-Trend3h_Sfc_RLatLon0.09_PT078H.grib2 2026-04-30 21:02 1.1M
20260430T18Z_MSC_RDPS_Pressure_MSL_RLatLon0.09_PT078H.grib2 2026-04-30 21:02 325K
20260430T18Z_MSC_RDPS_Pressure_PVU-1.5_RLatLon0.09_PT078H.grib2 2026-04-30 21:02 2.3M
20260430T18Z_MSC_RDPS_Pressure_PVU-1_RLatLon0.09_PT078H.grib2 2026-04-30 21:02 2.4M
20260430T18Z_MSC_RDPS_Pressure_PVU-2_RLatLon0.09_PT078H.grib2 2026-04-30 21:02 2.4M
20260430T18Z_MSC_RDPS_Pressure_Sfc_RLatLon0.09_PT078H.grib2 2026-04-30 21:02 497K
20260430T18Z_MSC_RDPS_RadiativeTemp_Sfc_RLatLon0.09_PT078H.grib2 2026-04-30 21:02 314K
20260430T18Z_MSC_RDPS_Rain-Accum12h_Sfc_RLatLon0.09_PT078H.grib2 2026-04-30 21:02 1.2M
20260430T18Z_MSC_RDPS_Rain-Accum1h_Sfc_RLatLon0.09_PT078H.grib2 2026-04-30 21:02 544K
20260430T18Z_MSC_RDPS_Rain-Accum24h_Sfc_RLatLon0.09_PT078H.grib2 2026-04-30 21:02 1.3M
20260430T18Z_MSC_RDPS_Rain-Accum3h_Sfc_RLatLon0.09_PT078H.grib2 2026-04-30 21:02 698K
20260430T18Z_MSC_RDPS_Rain-Accum6h_Sfc_RLatLon0.09_PT078H.grib2 2026-04-30 21:02 1.0M
20260430T18Z_MSC_RDPS_Rain-Accum_Sfc_RLatLon0.09_PT078H.grib2 2026-04-30 21:02 1.8M
20260430T18Z_MSC_RDPS_RelativeHumidity_AGL-2m_RLatLon0.09_PT078H.grib2 2026-04-30 21:02 1.0M
20260430T18Z_MSC_RDPS_RelativeHumidity_IsbL-0010_RLatLon0.09_PT078H.grib2 2026-04-30 21:02 600K
20260430T18Z_MSC_RDPS_RelativeHumidity_IsbL-0020_RLatLon0.09_PT078H.grib2 2026-04-30 21:02 649K
20260430T18Z_MSC_RDPS_RelativeHumidity_IsbL-0030_RLatLon0.09_PT078H.grib2 2026-04-30 21:02 602K
20260430T18Z_MSC_RDPS_RelativeHumidity_IsbL-0050_RLatLon0.09_PT078H.grib2 2026-04-30 21:02 307K
20260430T18Z_MSC_RDPS_RelativeHumidity_IsbL-0100_RLatLon0.09_PT078H.grib2 2026-04-30 21:02 278K
20260430T18Z_MSC_RDPS_RelativeHumidity_IsbL-0150_RLatLon0.09_PT078H.grib2 2026-04-30 21:02 409K
20260430T18Z_MSC_RDPS_RelativeHumidity_IsbL-0175_RLatLon0.09_PT078H.grib2 2026-04-30 21:02 470K
20260430T18Z_MSC_RDPS_RelativeHumidity_IsbL-0200_RLatLon0.09_PT078H.grib2 2026-04-30 21:02 552K
20260430T18Z_MSC_RDPS_RelativeHumidity_IsbL-0225_RLatLon0.09_PT078H.grib2 2026-04-30 21:02 619K
20260430T18Z_MSC_RDPS_RelativeHumidity_IsbL-0250_RLatLon0.09_PT078H.grib2 2026-04-30 21:02 683K
20260430T18Z_MSC_RDPS_RelativeHumidity_IsbL-0275_RLatLon0.09_PT078H.grib2 2026-04-30 21:02 710K
20260430T18Z_MSC_RDPS_RelativeHumidity_IsbL-0300_RLatLon0.09_PT078H.grib2 2026-04-30 21:02 752K
20260430T18Z_MSC_RDPS_RelativeHumidity_IsbL-0350_RLatLon0.09_PT078H.grib2 2026-04-30 21:02 778K
20260430T18Z_MSC_RDPS_RelativeHumidity_IsbL-0400_RLatLon0.09_PT078H.grib2 2026-04-30 21:02 790K
20260430T18Z_MSC_RDPS_RelativeHumidity_IsbL-0450_RLatLon0.09_PT078H.grib2 2026-04-30 21:02 795K
20260430T18Z_MSC_RDPS_RelativeHumidity_IsbL-0500_RLatLon0.09_PT078H.grib2 2026-04-30 21:02 801K
20260430T18Z_MSC_RDPS_RelativeHumidity_IsbL-0550_RLatLon0.09_PT078H.grib2 2026-04-30 21:02 820K
20260430T18Z_MSC_RDPS_RelativeHumidity_IsbL-0600_RLatLon0.09_PT078H.grib2 2026-04-30 21:02 836K
20260430T18Z_MSC_RDPS_RelativeHumidity_IsbL-0650_RLatLon0.09_PT078H.grib2 2026-04-30 21:02 848K
20260430T18Z_MSC_RDPS_RelativeHumidity_IsbL-0700_RLatLon0.09_PT078H.grib2 2026-04-30 21:02 869K
20260430T18Z_MSC_RDPS_RelativeHumidity_IsbL-0750_RLatLon0.09_PT078H.grib2 2026-04-30 21:02 916K
20260430T18Z_MSC_RDPS_RelativeHumidity_IsbL-0800_RLatLon0.09_PT078H.grib2 2026-04-30 21:02 1.0M
20260430T18Z_MSC_RDPS_RelativeHumidity_IsbL-0850_RLatLon0.09_PT078H.grib2 2026-04-30 21:02 1.0M
20260430T18Z_MSC_RDPS_RelativeHumidity_IsbL-0875_RLatLon0.09_PT078H.grib2 2026-04-30 21:02 1.1M
20260430T18Z_MSC_RDPS_RelativeHumidity_IsbL-0900_RLatLon0.09_PT078H.grib2 2026-04-30 21:02 1.1M
20260430T18Z_MSC_RDPS_RelativeHumidity_IsbL-0925_RLatLon0.09_PT078H.grib2 2026-04-30 21:02 1.1M
20260430T18Z_MSC_RDPS_RelativeHumidity_IsbL-0950_RLatLon0.09_PT078H.grib2 2026-04-30 21:02 1.1M
20260430T18Z_MSC_RDPS_RelativeHumidity_IsbL-0970_RLatLon0.09_PT078H.grib2 2026-04-30 21:02 1.0M
20260430T18Z_MSC_RDPS_RelativeHumidity_IsbL-0985_RLatLon0.09_PT078H.grib2 2026-04-30 21:02 1.0M
20260430T18Z_MSC_RDPS_RelativeHumidity_IsbL-1000_RLatLon0.09_PT078H.grib2 2026-04-30 21:02 1.0M
20260430T18Z_MSC_RDPS_RelativeHumidity_IsbL-1015_RLatLon0.09_PT078H.grib2 2026-04-30 21:02 1.0M
20260430T18Z_MSC_RDPS_Runoff-Accum_Sfc_RLatLon0.09_PT078H.grib2 2026-04-30 21:02 71K
20260430T18Z_MSC_RDPS_SWEATIndex_Sfc_RLatLon0.09_PT078H.grib2 2026-04-30 21:02 2.4M
20260430T18Z_MSC_RDPS_SeeingIndex_EAtm_RLatLon0.09_PT078H.grib2 2026-04-30 21:02 1.0M
20260430T18Z_MSC_RDPS_SensibleHeatNetFlux_Sfc_RLatLon0.09_PT078H.grib2 2026-04-30 21:02 315K
20260430T18Z_MSC_RDPS_ShowalterIndex_IsbL-0500_RLatLon0.09_PT078H.grib2 2026-04-30 21:02 2.6M
20260430T18Z_MSC_RDPS_SkyTransparencyIndex_EAtm_RLatLon0.09_PT078H.grib2 2026-04-30 21:02 730K
20260430T18Z_MSC_RDPS_Snow-Accum12h_Sfc_RLatLon0.09_PT078H.grib2 2026-04-30 21:02 590K
20260430T18Z_MSC_RDPS_Snow-Accum1h_Sfc_RLatLon0.09_PT078H.grib2 2026-04-30 21:02 433K
20260430T18Z_MSC_RDPS_Snow-Accum24h_Sfc_RLatLon0.09_PT078H.grib2 2026-04-30 21:02 642K
20260430T18Z_MSC_RDPS_Snow-Accum3h_Sfc_RLatLon0.09_PT078H.grib2 2026-04-30 21:02 439K
20260430T18Z_MSC_RDPS_Snow-Accum6h_Sfc_RLatLon0.09_PT078H.grib2 2026-04-30 21:02 534K
20260430T18Z_MSC_RDPS_Snow-Accum_Sfc_RLatLon0.09_PT078H.grib2 2026-04-30 21:02 775K
20260430T18Z_MSC_RDPS_SnowDensity_Sfc_RLatLon0.09_PT078H.grib2 2026-04-30 21:02 174K
20260430T18Z_MSC_RDPS_SnowDepth_Sfc_RLatLon0.09_PT078H.grib2 2026-04-30 21:02 654K
20260430T18Z_MSC_RDPS_SoilTemp_DBS-0to10cm_RLatLon0.09_PT078H.grib2 2026-04-30 21:02 250K
20260430T18Z_MSC_RDPS_SoilTemp_Sfc_RLatLon0.09_PT078H.grib2 2026-04-30 21:02 289K
20260430T18Z_MSC_RDPS_SoilVolumetricIceContent_Sfc_RLatLon0.09_PT078H.grib2 2026-04-30 21:02 157K
20260430T18Z_MSC_RDPS_SoilVolumetricWaterContent_DBS-0to10cm_RLatLon0.09_PT078H.grib2 2026-04-30 21:02 275K
20260430T18Z_MSC_RDPS_SoilVolumetricWaterContent_DBS-0to1cm_RLatLon0.09_PT078H.grib2 2026-04-30 21:02 342K
20260430T18Z_MSC_RDPS_SpecificHumidity_AGL-120m_RLatLon0.09_PT078H.grib2 2026-04-30 21:02 491K
20260430T18Z_MSC_RDPS_SpecificHumidity_AGL-2m_RLatLon0.09_PT078H.grib2 2026-04-30 21:02 664K
20260430T18Z_MSC_RDPS_SpecificHumidity_AGL-40m_RLatLon0.09_PT078H.grib2 2026-04-30 21:02 499K
20260430T18Z_MSC_RDPS_SpecificHumidity_AGL-80m_RLatLon0.09_PT078H.grib2 2026-04-30 21:02 493K
20260430T18Z_MSC_RDPS_SpecificHumidity_IsbL-0001_RLatLon0.09_PT078H.grib2 2026-04-30 21:02 368K
20260430T18Z_MSC_RDPS_SpecificHumidity_IsbL-0005_RLatLon0.09_PT078H.grib2 2026-04-30 21:02 358K
20260430T18Z_MSC_RDPS_SpecificHumidity_IsbL-0010_RLatLon0.09_PT078H.grib2 2026-04-30 21:02 390K
20260430T18Z_MSC_RDPS_SpecificHumidity_IsbL-0020_RLatLon0.09_PT078H.grib2 2026-04-30 21:02 369K
20260430T18Z_MSC_RDPS_SpecificHumidity_IsbL-0030_RLatLon0.09_PT078H.grib2 2026-04-30 21:02 473K
20260430T18Z_MSC_RDPS_SpecificHumidity_IsbL-0050_RLatLon0.09_PT078H.grib2 2026-04-30 21:02 468K
20260430T18Z_MSC_RDPS_SpecificHumidity_IsbL-0100_RLatLon0.09_PT078H.grib2 2026-04-30 21:02 445K
20260430T18Z_MSC_RDPS_SpecificHumidity_IsbL-0150_RLatLon0.09_PT078H.grib2 2026-04-30 21:02 448K
20260430T18Z_MSC_RDPS_SpecificHumidity_IsbL-0175_RLatLon0.09_PT078H.grib2 2026-04-30 21:02 435K
20260430T18Z_MSC_RDPS_SpecificHumidity_IsbL-0200_RLatLon0.09_PT078H.grib2 2026-04-30 21:02 472K
20260430T18Z_MSC_RDPS_SpecificHumidity_IsbL-0225_RLatLon0.09_PT078H.grib2 2026-04-30 21:02 474K
20260430T18Z_MSC_RDPS_SpecificHumidity_IsbL-0250_RLatLon0.09_PT078H.grib2 2026-04-30 21:02 515K
20260430T18Z_MSC_RDPS_SpecificHumidity_IsbL-0275_RLatLon0.09_PT078H.grib2 2026-04-30 21:02 477K
20260430T18Z_MSC_RDPS_SpecificHumidity_IsbL-0300_RLatLon0.09_PT078H.grib2 2026-04-30 21:02 451K
20260430T18Z_MSC_RDPS_SpecificHumidity_IsbL-0350_RLatLon0.09_PT078H.grib2 2026-04-30 21:02 572K
20260430T18Z_MSC_RDPS_SpecificHumidity_IsbL-0400_RLatLon0.09_PT078H.grib2 2026-04-30 21:02 526K
20260430T18Z_MSC_RDPS_SpecificHumidity_IsbL-0450_RLatLon0.09_PT078H.grib2 2026-04-30 21:02 574K
20260430T18Z_MSC_RDPS_SpecificHumidity_IsbL-0500_RLatLon0.09_PT078H.grib2 2026-04-30 21:02 511K
20260430T18Z_MSC_RDPS_SpecificHumidity_IsbL-0550_RLatLon0.09_PT078H.grib2 2026-04-30 21:02 584K
20260430T18Z_MSC_RDPS_SpecificHumidity_IsbL-0600_RLatLon0.09_PT078H.grib2 2026-04-30 21:02 633K
20260430T18Z_MSC_RDPS_SpecificHumidity_IsbL-0650_RLatLon0.09_PT078H.grib2 2026-04-30 21:02 550K
20260430T18Z_MSC_RDPS_SpecificHumidity_IsbL-0700_RLatLon0.09_PT078H.grib2 2026-04-30 21:02 592K
20260430T18Z_MSC_RDPS_SpecificHumidity_IsbL-0750_RLatLon0.09_PT078H.grib2 2026-04-30 21:02 645K
20260430T18Z_MSC_RDPS_SpecificHumidity_IsbL-0800_RLatLon0.09_PT078H.grib2 2026-04-30 21:02 729K
20260430T18Z_MSC_RDPS_SpecificHumidity_IsbL-0850_RLatLon0.09_PT078H.grib2 2026-04-30 21:02 808K
20260430T18Z_MSC_RDPS_SpecificHumidity_IsbL-0875_RLatLon0.09_PT078H.grib2 2026-04-30 21:02 837K
20260430T18Z_MSC_RDPS_SpecificHumidity_IsbL-0900_RLatLon0.09_PT078H.grib2 2026-04-30 21:02 709K
20260430T18Z_MSC_RDPS_SpecificHumidity_IsbL-0925_RLatLon0.09_PT078H.grib2 2026-04-30 21:02 709K
20260430T18Z_MSC_RDPS_SpecificHumidity_IsbL-0950_RLatLon0.09_PT078H.grib2 2026-04-30 21:02 709K
20260430T18Z_MSC_RDPS_SpecificHumidity_IsbL-0970_RLatLon0.09_PT078H.grib2 2026-04-30 21:02 701K
20260430T18Z_MSC_RDPS_SpecificHumidity_IsbL-0985_RLatLon0.09_PT078H.grib2 2026-04-30 21:02 693K
20260430T18Z_MSC_RDPS_SpecificHumidity_IsbL-1000_RLatLon0.09_PT078H.grib2 2026-04-30 21:02 687K
20260430T18Z_MSC_RDPS_SpecificHumidity_IsbL-1015_RLatLon0.09_PT078H.grib2 2026-04-30 21:02 678K
20260430T18Z_MSC_RDPS_SpecificHumidity_Sfc_RLatLon0.09_PT078H.grib2 2026-04-30 21:02 335K
20260430T18Z_MSC_RDPS_StormRelativeHelicity_EtaL-10000_RLatLon0.09_PT078H.grib2 2026-04-30 21:02 1.1M
20260430T18Z_MSC_RDPS_StormSeverityIndex_EtaL-10000_RLatLon0.09_PT078H.grib2 2026-04-30 21:02 1.2M
20260430T18Z_MSC_RDPS_Thickness_IsbL-0850to0700_RLatLon0.09_PT078H.grib2 2026-04-30 21:02 174K
20260430T18Z_MSC_RDPS_Thickness_IsbL-1000to0500_RLatLon0.09_PT078H.grib2 2026-04-30 21:02 195K
20260430T18Z_MSC_RDPS_Thickness_IsbL-1000to0850_RLatLon0.09_PT078H.grib2 2026-04-30 21:02 183K
20260430T18Z_MSC_RDPS_TotalCloudCover_Sfc_RLatLon0.09_PT078H.grib2 2026-04-30 21:02 653K
20260430T18Z_MSC_RDPS_TotalTotalsIndex_Sfc_RLatLon0.09_PT078H.grib2 2026-04-30 21:02 2.4M
20260430T18Z_MSC_RDPS_UVIndex-ClearSky_Sfc_RLatLon0.09_PT078H.grib2 2026-04-30 21:02 188K
20260430T18Z_MSC_RDPS_UVIndex_Sfc_RLatLon0.09_PT078H.grib2 2026-04-30 21:02 395K
20260430T18Z_MSC_RDPS_UpwardLongwaveRadiationFlux_NTAtm_RLatLon0.09_PT078H.grib2 2026-04-30 21:02 495K
20260430T18Z_MSC_RDPS_UpwardShortwaveRadiationFlux_NTAtm_RLatLon0.09_PT078H.grib2 2026-04-30 21:02 338K
20260430T18Z_MSC_RDPS_VerticalVelocity_IsbL-0250_RLatLon0.09_PT078H.grib2 2026-04-30 21:02 551K
20260430T18Z_MSC_RDPS_VerticalVelocity_IsbL-0500_RLatLon0.09_PT078H.grib2 2026-04-30 21:02 542K
20260430T18Z_MSC_RDPS_VerticalVelocity_IsbL-0700_RLatLon0.09_PT078H.grib2 2026-04-30 21:02 594K
20260430T18Z_MSC_RDPS_VerticalVelocity_IsbL-0850_RLatLon0.09_PT078H.grib2 2026-04-30 21:02 649K
20260430T18Z_MSC_RDPS_VerticalWindShear_EtaL-6500_RLatLon0.09_PT078H.grib2 2026-04-30 21:02 1.2M
20260430T18Z_MSC_RDPS_WindChill_Sfc_RLatLon0.09_PT078H.grib2 2026-04-30 21:02 1.1M
20260430T18Z_MSC_RDPS_WindDir_AGL-10m_RLatLon0.09_PT078H.grib2 2026-04-30 21:02 950K
20260430T18Z_MSC_RDPS_WindDir_AGL-120m_RLatLon0.09_PT078H.grib2 2026-04-30 21:02 596K
20260430T18Z_MSC_RDPS_WindDir_AGL-40m_RLatLon0.09_PT078H.grib2 2026-04-30 21:02 621K
20260430T18Z_MSC_RDPS_WindDir_AGL-80m_RLatLon0.09_PT078H.grib2 2026-04-30 21:02 606K
20260430T18Z_MSC_RDPS_WindDir_IsbL-0001_RLatLon0.09_PT078H.grib2 2026-04-30 21:02 283K
20260430T18Z_MSC_RDPS_WindDir_IsbL-0005_RLatLon0.09_PT078H.grib2 2026-04-30 21:02 370K
20260430T18Z_MSC_RDPS_WindDir_IsbL-0010_RLatLon0.09_PT078H.grib2 2026-04-30 21:02 395K
20260430T18Z_MSC_RDPS_WindDir_IsbL-0020_RLatLon0.09_PT078H.grib2 2026-04-30 21:02 431K
20260430T18Z_MSC_RDPS_WindDir_IsbL-0030_RLatLon0.09_PT078H.grib2 2026-04-30 21:02 423K
20260430T18Z_MSC_RDPS_WindDir_IsbL-0050_RLatLon0.09_PT078H.grib2 2026-04-30 21:02 408K
20260430T18Z_MSC_RDPS_WindDir_IsbL-0100_RLatLon0.09_PT078H.grib2 2026-04-30 21:02 407K
20260430T18Z_MSC_RDPS_WindDir_IsbL-0150_RLatLon0.09_PT078H.grib2 2026-04-30 21:02 410K
20260430T18Z_MSC_RDPS_WindDir_IsbL-0175_RLatLon0.09_PT078H.grib2 2026-04-30 21:02 432K
20260430T18Z_MSC_RDPS_WindDir_IsbL-0200_RLatLon0.09_PT078H.grib2 2026-04-30 21:02 452K
20260430T18Z_MSC_RDPS_WindDir_IsbL-0225_RLatLon0.09_PT078H.grib2 2026-04-30 21:02 456K
20260430T18Z_MSC_RDPS_WindDir_IsbL-0250_RLatLon0.09_PT078H.grib2 2026-04-30 21:02 456K
20260430T18Z_MSC_RDPS_WindDir_IsbL-0275_RLatLon0.09_PT078H.grib2 2026-04-30 21:02 479K
20260430T18Z_MSC_RDPS_WindDir_IsbL-0300_RLatLon0.09_PT078H.grib2 2026-04-30 21:02 475K
20260430T18Z_MSC_RDPS_WindDir_IsbL-0350_RLatLon0.09_PT078H.grib2 2026-04-30 21:02 497K
20260430T18Z_MSC_RDPS_WindDir_IsbL-0400_RLatLon0.09_PT078H.grib2 2026-04-30 21:02 519K
20260430T18Z_MSC_RDPS_WindDir_IsbL-0450_RLatLon0.09_PT078H.grib2 2026-04-30 21:02 531K
20260430T18Z_MSC_RDPS_WindDir_IsbL-0500_RLatLon0.09_PT078H.grib2 2026-04-30 21:02 534K
20260430T18Z_MSC_RDPS_WindDir_IsbL-0550_RLatLon0.09_PT078H.grib2 2026-04-30 21:02 541K
20260430T18Z_MSC_RDPS_WindDir_IsbL-0600_RLatLon0.09_PT078H.grib2 2026-04-30 21:02 564K
20260430T18Z_MSC_RDPS_WindDir_IsbL-0650_RLatLon0.09_PT078H.grib2 2026-04-30 21:02 599K
20260430T18Z_MSC_RDPS_WindDir_IsbL-0700_RLatLon0.09_PT078H.grib2 2026-04-30 21:02 642K
20260430T18Z_MSC_RDPS_WindDir_IsbL-0750_RLatLon0.09_PT078H.grib2 2026-04-30 21:02 684K
20260430T18Z_MSC_RDPS_WindDir_IsbL-0800_RLatLon0.09_PT078H.grib2 2026-04-30 21:02 753K
20260430T18Z_MSC_RDPS_WindDir_IsbL-0850_RLatLon0.09_PT078H.grib2 2026-04-30 21:02 845K
20260430T18Z_MSC_RDPS_WindDir_IsbL-0875_RLatLon0.09_PT078H.grib2 2026-04-30 21:02 877K
20260430T18Z_MSC_RDPS_WindDir_IsbL-0900_RLatLon0.09_PT078H.grib2 2026-04-30 21:02 894K
20260430T18Z_MSC_RDPS_WindDir_IsbL-0925_RLatLon0.09_PT078H.grib2 2026-04-30 21:02 901K
20260430T18Z_MSC_RDPS_WindDir_IsbL-0950_RLatLon0.09_PT078H.grib2 2026-04-30 21:02 899K
20260430T18Z_MSC_RDPS_WindDir_IsbL-0970_RLatLon0.09_PT078H.grib2 2026-04-30 21:02 904K
20260430T18Z_MSC_RDPS_WindDir_IsbL-0985_RLatLon0.09_PT078H.grib2 2026-04-30 21:02 914K
20260430T18Z_MSC_RDPS_WindDir_IsbL-1000_RLatLon0.09_PT078H.grib2 2026-04-30 21:02 927K
20260430T18Z_MSC_RDPS_WindDir_IsbL-1015_RLatLon0.09_PT078H.grib2 2026-04-30 21:02 942K
20260430T18Z_MSC_RDPS_WindGust-Max_AGL-10m_RLatLon0.09_PT078H.grib2 2026-04-30 21:02 1.0M
20260430T18Z_MSC_RDPS_WindGust-Min_AGL-10m_RLatLon0.09_PT078H.grib2 2026-04-30 21:02 1.0M
20260430T18Z_MSC_RDPS_WindGust_AGL-10m_RLatLon0.09_PT078H.grib2 2026-04-30 21:02 1.0M
20260430T18Z_MSC_RDPS_WindSpeed_AGL-10m_RLatLon0.09_PT078H.grib2 2026-04-30 21:02 833K
20260430T18Z_MSC_RDPS_WindSpeed_AGL-120m_RLatLon0.09_PT078H.grib2 2026-04-30 21:02 529K
20260430T18Z_MSC_RDPS_WindSpeed_AGL-40m_RLatLon0.09_PT078H.grib2 2026-04-30 21:02 535K
20260430T18Z_MSC_RDPS_WindSpeed_AGL-80m_RLatLon0.09_PT078H.grib2 2026-04-30 21:02 530K
20260430T18Z_MSC_RDPS_WindSpeed_IsbL-0001_RLatLon0.09_PT078H.grib2 2026-04-30 21:02 330K
20260430T18Z_MSC_RDPS_WindSpeed_IsbL-0005_RLatLon0.09_PT078H.grib2 2026-04-30 21:02 346K
20260430T18Z_MSC_RDPS_WindSpeed_IsbL-0010_RLatLon0.09_PT078H.grib2 2026-04-30 21:02 400K
20260430T18Z_MSC_RDPS_WindSpeed_IsbL-0020_RLatLon0.09_PT078H.grib2 2026-04-30 21:02 421K
20260430T18Z_MSC_RDPS_WindSpeed_IsbL-0030_RLatLon0.09_PT078H.grib2 2026-04-30 21:02 323K
20260430T18Z_MSC_RDPS_WindSpeed_IsbL-0050_RLatLon0.09_PT078H.grib2 2026-04-30 21:02 352K
20260430T18Z_MSC_RDPS_WindSpeed_IsbL-0100_RLatLon0.09_PT078H.grib2 2026-04-30 21:02 479K
20260430T18Z_MSC_RDPS_WindSpeed_IsbL-0150_RLatLon0.09_PT078H.grib2 2026-04-30 21:02 385K
20260430T18Z_MSC_RDPS_WindSpeed_IsbL-0175_RLatLon0.09_PT078H.grib2 2026-04-30 21:02 428K
20260430T18Z_MSC_RDPS_WindSpeed_IsbL-0200_RLatLon0.09_PT078H.grib2 2026-04-30 21:02 446K
20260430T18Z_MSC_RDPS_WindSpeed_IsbL-0225_RLatLon0.09_PT078H.grib2 2026-04-30 21:02 453K
20260430T18Z_MSC_RDPS_WindSpeed_IsbL-0250_RLatLon0.09_PT078H.grib2 2026-04-30 21:02 454K
20260430T18Z_MSC_RDPS_WindSpeed_IsbL-0275_RLatLon0.09_PT078H.grib2 2026-04-30 21:02 470K
20260430T18Z_MSC_RDPS_WindSpeed_IsbL-0300_RLatLon0.09_PT078H.grib2 2026-04-30 21:02 466K
20260430T18Z_MSC_RDPS_WindSpeed_IsbL-0350_RLatLon0.09_PT078H.grib2 2026-04-30 21:02 476K
20260430T18Z_MSC_RDPS_WindSpeed_IsbL-0400_RLatLon0.09_PT078H.grib2 2026-04-30 21:02 463K
20260430T18Z_MSC_RDPS_WindSpeed_IsbL-0450_RLatLon0.09_PT078H.grib2 2026-04-30 21:02 465K
20260430T18Z_MSC_RDPS_WindSpeed_IsbL-0500_RLatLon0.09_PT078H.grib2 2026-04-30 21:02 465K
20260430T18Z_MSC_RDPS_WindSpeed_IsbL-0550_RLatLon0.09_PT078H.grib2 2026-04-30 21:02 582K
20260430T18Z_MSC_RDPS_WindSpeed_IsbL-0600_RLatLon0.09_PT078H.grib2 2026-04-30 21:02 588K
20260430T18Z_MSC_RDPS_WindSpeed_IsbL-0650_RLatLon0.09_PT078H.grib2 2026-04-30 21:02 606K
20260430T18Z_MSC_RDPS_WindSpeed_IsbL-0700_RLatLon0.09_PT078H.grib2 2026-04-30 21:02 674K
20260430T18Z_MSC_RDPS_WindSpeed_IsbL-0750_RLatLon0.09_PT078H.grib2 2026-04-30 21:02 703K
20260430T18Z_MSC_RDPS_WindSpeed_IsbL-0800_RLatLon0.09_PT078H.grib2 2026-04-30 21:02 751K
20260430T18Z_MSC_RDPS_WindSpeed_IsbL-0850_RLatLon0.09_PT078H.grib2 2026-04-30 21:02 813K
20260430T18Z_MSC_RDPS_WindSpeed_IsbL-0875_RLatLon0.09_PT078H.grib2 2026-04-30 21:02 838K
20260430T18Z_MSC_RDPS_WindSpeed_IsbL-0900_RLatLon0.09_PT078H.grib2 2026-04-30 21:02 851K
20260430T18Z_MSC_RDPS_WindSpeed_IsbL-0925_RLatLon0.09_PT078H.grib2 2026-04-30 21:02 862K
20260430T18Z_MSC_RDPS_WindSpeed_IsbL-0950_RLatLon0.09_PT078H.grib2 2026-04-30 21:02 862K
20260430T18Z_MSC_RDPS_WindSpeed_IsbL-0970_RLatLon0.09_PT078H.grib2 2026-04-30 21:02 860K
20260430T18Z_MSC_RDPS_WindSpeed_IsbL-0985_RLatLon0.09_PT078H.grib2 2026-04-30 21:02 853K
20260430T18Z_MSC_RDPS_WindSpeed_IsbL-1000_RLatLon0.09_PT078H.grib2 2026-04-30 21:02 844K
20260430T18Z_MSC_RDPS_WindSpeed_IsbL-1015_RLatLon0.09_PT078H.grib2 2026-04-30 21:02 834K
20260430T18Z_MSC_RDPS_WindU_AGL-10m_RLatLon0.09_PT078H.grib2 2026-04-30 21:02 429K
20260430T18Z_MSC_RDPS_WindU_AGL-120m_RLatLon0.09_PT078H.grib2 2026-04-30 21:02 412K
20260430T18Z_MSC_RDPS_WindU_AGL-40m_RLatLon0.09_PT078H.grib2 2026-04-30 21:02 532K
20260430T18Z_MSC_RDPS_WindU_AGL-80m_RLatLon0.09_PT078H.grib2 2026-04-30 21:02 414K
20260430T18Z_MSC_RDPS_WindU_IsbL-0001_RLatLon0.09_PT078H.grib2 2026-04-30 21:02 292K
20260430T18Z_MSC_RDPS_WindU_IsbL-0005_RLatLon0.09_PT078H.grib2 2026-04-30 21:02 283K
20260430T18Z_MSC_RDPS_WindU_IsbL-0010_RLatLon0.09_PT078H.grib2 2026-04-30 21:02 297K
20260430T18Z_MSC_RDPS_WindU_IsbL-0020_RLatLon0.09_PT078H.grib2 2026-04-30 21:02 315K
20260430T18Z_MSC_RDPS_WindU_IsbL-0030_RLatLon0.09_PT078H.grib2 2026-04-30 21:02 355K
20260430T18Z_MSC_RDPS_WindU_IsbL-0050_RLatLon0.09_PT078H.grib2 2026-04-30 21:02 381K
20260430T18Z_MSC_RDPS_WindU_IsbL-0100_RLatLon0.09_PT078H.grib2 2026-04-30 21:02 435K
20260430T18Z_MSC_RDPS_WindU_IsbL-0150_RLatLon0.09_PT078H.grib2 2026-04-30 21:02 401K
20260430T18Z_MSC_RDPS_WindU_IsbL-0175_RLatLon0.09_PT078H.grib2 2026-04-30 21:02 326K
20260430T18Z_MSC_RDPS_WindU_IsbL-0200_RLatLon0.09_PT078H.grib2 2026-04-30 21:02 341K
20260430T18Z_MSC_RDPS_WindU_IsbL-0225_RLatLon0.09_PT078H.grib2 2026-04-30 21:02 345K
20260430T18Z_MSC_RDPS_WindU_IsbL-0250_RLatLon0.09_PT078H.grib2 2026-04-30 21:02 345K
20260430T18Z_MSC_RDPS_WindU_IsbL-0275_RLatLon0.09_PT078H.grib2 2026-04-30 21:02 358K
20260430T18Z_MSC_RDPS_WindU_IsbL-0300_RLatLon0.09_PT078H.grib2 2026-04-30 21:02 454K
20260430T18Z_MSC_RDPS_WindU_IsbL-0350_RLatLon0.09_PT078H.grib2 2026-04-30 21:02 464K
20260430T18Z_MSC_RDPS_WindU_IsbL-0400_RLatLon0.09_PT078H.grib2 2026-04-30 21:02 468K
20260430T18Z_MSC_RDPS_WindU_IsbL-0450_RLatLon0.09_PT078H.grib2 2026-04-30 21:02 469K
20260430T18Z_MSC_RDPS_WindU_IsbL-0500_RLatLon0.09_PT078H.grib2 2026-04-30 21:02 470K
20260430T18Z_MSC_RDPS_WindU_IsbL-0550_RLatLon0.09_PT078H.grib2 2026-04-30 21:02 453K
20260430T18Z_MSC_RDPS_WindU_IsbL-0600_RLatLon0.09_PT078H.grib2 2026-04-30 21:02 460K
20260430T18Z_MSC_RDPS_WindU_IsbL-0650_RLatLon0.09_PT078H.grib2 2026-04-30 21:02 478K
20260430T18Z_MSC_RDPS_WindU_IsbL-0700_RLatLon0.09_PT078H.grib2 2026-04-30 21:02 500K
20260430T18Z_MSC_RDPS_WindU_IsbL-0750_RLatLon0.09_PT078H.grib2 2026-04-30 21:02 525K
20260430T18Z_MSC_RDPS_WindU_IsbL-0800_RLatLon0.09_PT078H.grib2 2026-04-30 21:02 565K
20260430T18Z_MSC_RDPS_WindU_IsbL-0850_RLatLon0.09_PT078H.grib2 2026-04-30 21:02 620K
20260430T18Z_MSC_RDPS_WindU_IsbL-0875_RLatLon0.09_PT078H.grib2 2026-04-30 21:02 642K
20260430T18Z_MSC_RDPS_WindU_IsbL-0900_RLatLon0.09_PT078H.grib2 2026-04-30 21:02 658K
20260430T18Z_MSC_RDPS_WindU_IsbL-0925_RLatLon0.09_PT078H.grib2 2026-04-30 21:02 663K
20260430T18Z_MSC_RDPS_WindU_IsbL-0950_RLatLon0.09_PT078H.grib2 2026-04-30 21:02 653K
20260430T18Z_MSC_RDPS_WindU_IsbL-0970_RLatLon0.09_PT078H.grib2 2026-04-30 21:02 651K
20260430T18Z_MSC_RDPS_WindU_IsbL-0985_RLatLon0.09_PT078H.grib2 2026-04-30 21:02 647K
20260430T18Z_MSC_RDPS_WindU_IsbL-1000_RLatLon0.09_PT078H.grib2 2026-04-30 21:02 780K
20260430T18Z_MSC_RDPS_WindU_IsbL-1015_RLatLon0.09_PT078H.grib2 2026-04-30 21:02 773K
20260430T18Z_MSC_RDPS_WindV_AGL-10m_RLatLon0.09_PT078H.grib2 2026-04-30 21:02 429K
20260430T18Z_MSC_RDPS_WindV_AGL-120m_RLatLon0.09_PT078H.grib2 2026-04-30 21:02 528K
20260430T18Z_MSC_RDPS_WindV_AGL-40m_RLatLon0.09_PT078H.grib2 2026-04-30 21:02 532K
20260430T18Z_MSC_RDPS_WindV_AGL-80m_RLatLon0.09_PT078H.grib2 2026-04-30 21:02 529K
20260430T18Z_MSC_RDPS_WindV_IsbL-0001_RLatLon0.09_PT078H.grib2 2026-04-30 21:02 245K
20260430T18Z_MSC_RDPS_WindV_IsbL-0005_RLatLon0.09_PT078H.grib2 2026-04-30 21:02 286K
20260430T18Z_MSC_RDPS_WindV_IsbL-0010_RLatLon0.09_PT078H.grib2 2026-04-30 21:02 388K
20260430T18Z_MSC_RDPS_WindV_IsbL-0020_RLatLon0.09_PT078H.grib2 2026-04-30 21:02 318K
20260430T18Z_MSC_RDPS_WindV_IsbL-0030_RLatLon0.09_PT078H.grib2 2026-04-30 21:02 317K
20260430T18Z_MSC_RDPS_WindV_IsbL-0050_RLatLon0.09_PT078H.grib2 2026-04-30 21:02 344K
20260430T18Z_MSC_RDPS_WindV_IsbL-0100_RLatLon0.09_PT078H.grib2 2026-04-30 21:02 335K
20260430T18Z_MSC_RDPS_WindV_IsbL-0150_RLatLon0.09_PT078H.grib2 2026-04-30 21:02 400K
20260430T18Z_MSC_RDPS_WindV_IsbL-0175_RLatLon0.09_PT078H.grib2 2026-04-30 21:02 326K
20260430T18Z_MSC_RDPS_WindV_IsbL-0200_RLatLon0.09_PT078H.grib2 2026-04-30 21:02 365K
20260430T18Z_MSC_RDPS_WindV_IsbL-0225_RLatLon0.09_PT078H.grib2 2026-04-30 21:02 369K
20260430T18Z_MSC_RDPS_WindV_IsbL-0250_RLatLon0.09_PT078H.grib2 2026-04-30 21:02 369K
20260430T18Z_MSC_RDPS_WindV_IsbL-0275_RLatLon0.09_PT078H.grib2 2026-04-30 21:02 381K
20260430T18Z_MSC_RDPS_WindV_IsbL-0300_RLatLon0.09_PT078H.grib2 2026-04-30 21:02 377K
20260430T18Z_MSC_RDPS_WindV_IsbL-0350_RLatLon0.09_PT078H.grib2 2026-04-30 21:02 359K
20260430T18Z_MSC_RDPS_WindV_IsbL-0400_RLatLon0.09_PT078H.grib2 2026-04-30 21:02 363K
20260430T18Z_MSC_RDPS_WindV_IsbL-0450_RLatLon0.09_PT078H.grib2 2026-04-30 21:02 365K
20260430T18Z_MSC_RDPS_WindV_IsbL-0500_RLatLon0.09_PT078H.grib2 2026-04-30 21:02 468K
20260430T18Z_MSC_RDPS_WindV_IsbL-0550_RLatLon0.09_PT078H.grib2 2026-04-30 21:02 469K
20260430T18Z_MSC_RDPS_WindV_IsbL-0600_RLatLon0.09_PT078H.grib2 2026-04-30 21:02 475K
20260430T18Z_MSC_RDPS_WindV_IsbL-0650_RLatLon0.09_PT078H.grib2 2026-04-30 21:02 492K
20260430T18Z_MSC_RDPS_WindV_IsbL-0700_RLatLon0.09_PT078H.grib2 2026-04-30 21:02 513K
20260430T18Z_MSC_RDPS_WindV_IsbL-0750_RLatLon0.09_PT078H.grib2 2026-04-30 21:02 536K
20260430T18Z_MSC_RDPS_WindV_IsbL-0800_RLatLon0.09_PT078H.grib2 2026-04-30 21:02 574K
20260430T18Z_MSC_RDPS_WindV_IsbL-0850_RLatLon0.09_PT078H.grib2 2026-04-30 21:02 625K
20260430T18Z_MSC_RDPS_WindV_IsbL-0875_RLatLon0.09_PT078H.grib2 2026-04-30 21:02 638K
20260430T18Z_MSC_RDPS_WindV_IsbL-0900_RLatLon0.09_PT078H.grib2 2026-04-30 21:02 649K
20260430T18Z_MSC_RDPS_WindV_IsbL-0925_RLatLon0.09_PT078H.grib2 2026-04-30 21:02 657K
20260430T18Z_MSC_RDPS_WindV_IsbL-0950_RLatLon0.09_PT078H.grib2 2026-04-30 21:02 656K
20260430T18Z_MSC_RDPS_WindV_IsbL-0970_RLatLon0.09_PT078H.grib2 2026-04-30 21:02 653K
20260430T18Z_MSC_RDPS_WindV_IsbL-0985_RLatLon0.09_PT078H.grib2 2026-04-30 21:02 789K
20260430T18Z_MSC_RDPS_WindV_IsbL-1000_RLatLon0.09_PT078H.grib2 2026-04-30 21:02 781K
20260430T18Z_MSC_RDPS_WindV_IsbL-1015_RLatLon0.09_PT078H.grib2 2026-04-30 21:02 773K